Погода в Яковлеве

Россия / Липецкая область     52°07′22″N   38°35′23″E
темп.,
°C
ветер,
м/с
пор.,
м/с
влажн.,
%
обл.,
%
осадки,
мм/ч
давл.,
гПа
погр.,
м
31 июля, сб
сб3100:00+18з36830 0.0 1008104
03:00+17зсз37900 0.0 1008118
06:00+18зсз35850 0.0 1009134
09:00+25зсз45536 0.0 1009668
12:00+28зсз44351 0.0 10092090
15:00+30з45324 0.0 10092531
18:00+29з55352 0.0 10102138
21:00+23зюз22495 0.0 101112
1 августа, вс
вс100:00+21зсз22555 0.0 101113
03:00+19зсз12625 0.0 101313
06:00+21юв116153 0.0 101311
09:00+27ю334037 0.0 1013560
12:00+31юз343035 0.0 10132761
15:00+32з552660 0.0 10122891
18:00+32зсз23290 0.0 10101420
21:00+26юв333939 0.0 101122
2 августа, пн
пн200:00+23ю36640 0.0 101291
03:00+20ю36700 0.1 101293
06:00+21ю376514 0.0 1011147
09:00+28ююз57452 0.1 1011547
12:00+33юз693176 0.0 10092885
15:00+34зюз792435 0.0 10073337
18:00+33юз5727100 0.0 10062829
21:00+25зюз51054100 0.1 1007226
3 августа, вт
вт300:00+21зюз81674100 0.4 1008506
03:00+18юз389068 0.8 1008230
06:00+19юз4887100 0.0 1009308
09:00+23зюз676499 0.0 1009713
12:00+24з785277 0.0 10101150
15:00+26зсз784385 0.0 10102011
18:00+24зсз77473 0.0 10101625
21:00+19сз226018 0.0 101323
4 августа, ср
ср400:00+17ссз23670 0.0 101432
03:00+15зсз22820 0.0 101419
06:00+16зсз22795 0.0 101550
09:00+22зсз335317 0.0 1016788
12:00+26зсз453879 0.0 10152451
15:00+24зсз343762 0.1 10161555
18:00+24ссз573546 0.0 1016591
21:00+20ссв234558 0.0 101741